contact:dominique.lefevre@mio.osupytheas.fr, maurice.libes@osupytheas.fr, didier.mallarino@osupytheas.fr
Project:EMSO http://www.emso-fr.org/EMSO-France
Depth: 2436.0 m
Title:EMSO Ligure Ouest : Data MII capteur MICROCAT
DateTime_Computer,Latitude,Longitude,Temperature,Conductivity,Pressure,DateTime_Instrument
DateTime_Computer,Latitude,Longitude,degC,S m-1,dbar,DateTime_Instrument
2019-06-27T00:00:36Z,42.805,6.029,13.2997,4.59991,2469.923,2019-6-27T02:00:53Z
2019-06-27T00:03:39Z,42.805,6.029,13.3003,4.59991,2469.89,2019-6-27T02:03:56Z
2019-06-27T00:06:42Z,42.805,6.029,13.2991,4.60001,2469.876,2019-6-27T02:06:59Z
2019-06-27T00:09:45Z,42.805,6.029,13.2991,4.59996,2469.937,2019-6-27T02:10:02Z
2019-06-27T00:12:48Z,42.805,6.029,13.2997,4.60003,2469.9,2019-6-27T02:13:05Z
2019-06-27T00:15:51Z,42.805,6.029,13.2998,4.60004,2469.914,2019-6-27T02:16:08Z
2019-06-27T00:18:54Z,42.805,6.029,13.2996,4.59991,2469.9,2019-6-27T02:19:11Z
2019-06-27T00:21:57Z,42.805,6.029,13.2993,4.59993,2469.914,2019-6-27T02:22:14Z
2019-06-27T00:25:00Z,42.805,6.029,13.2989,4.59997,2469.937,2019-6-27T02:25:17Z
2019-06-27T00:28:03Z,42.805,6.029,13.2986,4.60002,2469.914,2019-6-27T02:28:20Z
2019-06-27T00:31:06Z,42.805,6.029,13.3027,4.59993,2469.9,2019-6-27T02:31:22Z
2019-06-27T00:34:08Z,42.805,6.029,13.2995,4.60008,2469.937,2019-6-27T02:34:25Z
2019-06-27T00:37:11Z,42.805,6.029,13.3000,4.60006,2469.914,2019-6-27T02:37:28Z
2019-06-27T00:40:14Z,42.805,6.029,13.2993,4.60019,2469.937,2019-6-27T02:40:31Z
2019-06-27T00:43:17Z,42.805,6.029,13.2993,4.59996,2469.947,2019-6-27T02:43:34Z
2019-06-27T00:46:20Z,42.805,6.029,13.2998,4.59997,2469.937,2019-6-27T02:46:37Z
2019-06-27T00:49:23Z,42.805,6.029,13.2998,4.60002,2469.923,2019-6-27T02:49:40Z
2019-06-27T00:52:26Z,42.805,6.029,13.2975,4.59986,2469.923,2019-6-27T02:52:43Z
2019-06-27T00:55:29Z,42.805,6.029,13.2998,4.59994,2469.96,2019-6-27T02:55:46Z
2019-06-27T00:58:32Z,42.805,6.029,13.2984,4.60005,2469.923,2019-6-27T02:58:49Z
2019-06-27T01:01:35Z,42.805,6.029,13.2987,4.60004,2469.937,2019-6-27T03:01:52Z
2019-06-27T01:04:38Z,42.805,6.029,13.2998,4.59979,2469.923,2019-6-27T03:04:55Z
2019-06-27T01:07:41Z,42.805,6.029,13.2993,4.59977,2469.937,2019-6-27T03:07:58Z
2019-06-27T01:10:44Z,42.805,6.029,13.2985,4.59992,2469.9,2019-6-27T03:11:01Z
2019-06-27T01:13:47Z,42.805,6.029,13.2980,4.59996,2469.937,2019-6-27T03:14:04Z
2019-06-27T01:16:50Z,42.805,6.029,13.2980,4.60005,2469.937,2019-6-27T03:17:07Z
2019-06-27T01:19:53Z,42.805,6.029,13.2980,4.59994,2469.96,2019-6-27T03:20:10Z
2019-06-27T01:22:56Z,42.805,6.029,13.3003,4.60011,2469.937,2019-6-27T03:23:13Z
2019-06-27T01:25:59Z,42.805,6.029,13.3001,4.60005,2469.937,2019-6-27T03:26:16Z
2019-06-27T01:29:02Z,42.805,6.029,13.3029,4.60019,2469.923,2019-6-27T03:29:19Z
2019-06-27T01:32:04Z,42.805,6.029,13.3020,4.60061,2469.937,2019-6-27T03:32:21Z
2019-06-27T01:35:07Z,42.805,6.029,13.3014,4.60021,2469.923,2019-6-27T03:35:24Z
2019-06-27T01:38:10Z,42.805,6.029,13.2986,4.60036,2469.9,2019-6-27T03:38:27Z
2019-06-27T01:41:13Z,42.805,6.029,13.3014,4.59999,2469.96,2019-6-27T03:41:30Z
2019-06-27T01:44:16Z,42.805,6.029,13.3019,4.60029,2469.96,2019-6-27T03:44:33Z
2019-06-27T01:47:19Z,42.805,6.029,13.3031,4.60017,2469.923,2019-6-27T03:47:36Z
2019-06-27T01:50:22Z,42.805,6.029,13.3027,4.60056,2469.923,2019-6-27T03:50:39Z
2019-06-27T01:53:25Z,42.805,6.029,13.3005,4.60043,2469.947,2019-6-27T03:53:42Z
2019-06-27T01:56:28Z,42.805,6.029,13.3026,4.60003,2469.947,2019-6-27T03:56:45Z
2019-06-27T01:59:31Z,42.805,6.029,13.3033,4.60041,2469.923,2019-6-27T03:59:48Z
2019-06-27T02:02:34Z,42.805,6.029,13.2981,4.59991,2469.937,2019-6-27T04:02:51Z
2019-06-27T02:05:37Z,42.805,6.029,13.3011,4.60057,2469.96,2019-6-27T04:05:54Z
2019-06-27T02:08:40Z,42.805,6.029,13.3021,4.60092,2469.96,2019-6-27T04:08:57Z
2019-06-27T02:11:43Z,42.805,6.029,13.3021,4.60030,2469.923,2019-6-27T04:12:00Z
2019-06-27T02:14:46Z,42.805,6.029,13.3010,4.60021,2469.96,2019-6-27T04:15:03Z
2019-06-27T02:17:49Z,42.805,6.029,13.3019,4.60018,2469.937,2019-6-27T04:18:06Z
2019-06-27T02:20:52Z,42.805,6.029,13.3029,4.60038,2469.947,2019-6-27T04:21:09Z
2019-06-27T02:23:55Z,42.805,6.029,13.3029,4.60024,2469.937,2019-6-27T04:24:12Z
2019-06-27T02:26:58Z,42.805,6.029,13.3011,4.60027,2469.9,2019-6-27T04:27:15Z
2019-06-27T02:30:00Z,42.805,6.029,13.3000,4.60008,2469.937,2019-6-27T04:30:17Z
2019-06-27T02:33:03Z,42.805,6.029,13.2999,4.60015,2469.914,2019-6-27T04:33:20Z
2019-06-27T02:36:06Z,42.805,6.029,13.3026,4.60016,2469.96,2019-6-27T04:36:23Z
2019-06-27T02:39:09Z,42.805,6.029,13.3015,4.60036,2469.96,2019-6-27T04:39:26Z
2019-06-27T02:42:12Z,42.805,6.029,13.2998,4.60034,2469.914,2019-6-27T04:42:29Z
2019-06-27T02:45:15Z,42.805,6.029,13.2996,4.60034,2469.914,2019-6-27T04:45:32Z
2019-06-27T02:48:18Z,42.805,6.029,13.2997,4.60029,2469.96,2019-6-27T04:48:35Z
2019-06-27T02:51:21Z,42.805,6.029,13.2993,4.60049,2469.947,2019-6-27T04:51:38Z
2019-06-27T02:54:24Z,42.805,6.029,13.3014,4.60003,2469.923,2019-6-27T04:54:41Z
2019-06-27T02:57:27Z,42.805,6.029,13.2989,4.60021,2469.947,2019-6-27T04:57:44Z
2019-06-27T03:00:30Z,42.805,6.029,13.2985,4.60013,2469.96,2019-6-27T05:00:47Z
2019-06-27T03:03:33Z,42.805,6.029,13.2990,4.60003,2469.937,2019-6-27T05:03:50Z
2019-06-27T03:06:36Z,42.805,6.029,13.2996,4.60032,2469.937,2019-6-27T05:06:53Z
2019-06-27T03:09:39Z,42.805,6.029,13.2983,4.60033,2469.9,2019-6-27T05:09:56Z
2019-06-27T03:12:42Z,42.805,6.029,13.2994,4.60025,2469.923,2019-6-27T05:12:59Z
2019-06-27T03:15:45Z,42.805,6.029,13.2996,4.60026,2469.923,2019-6-27T05:16:02Z
2019-06-27T03:18:48Z,42.805,6.029,13.3006,4.60024,2469.947,2019-6-27T05:19:05Z
2019-06-27T03:21:51Z,42.805,6.029,13.3000,4.60033,2469.923,2019-6-27T05:22:08Z
2019-06-27T03:24:54Z,42.805,6.029,13.3007,4.60039,2469.923,2019-6-27T05:25:11Z
2019-06-27T03:27:56Z,42.805,6.029,13.3004,4.60024,2469.96,2019-6-27T05:28:13Z
2019-06-27T03:30:59Z,42.805,6.029,13.3006,4.60026,2469.937,2019-6-27T05:31:16Z
2019-06-27T03:34:02Z,42.805,6.029,13.2992,4.60010,2469.947,2019-6-27T05:34:19Z
2019-06-27T03:37:05Z,42.805,6.029,13.3008,4.60032,2469.937,2019-6-27T05:37:22Z
2019-06-27T03:40:08Z,42.805,6.029,13.3004,4.60030,2469.97,2019-6-27T05:40:25Z
2019-06-27T03:43:11Z,42.805,6.029,13.2993,4.60029,2469.947,2019-6-27T05:43:28Z
2019-06-27T03:46:14Z,42.805,6.029,13.2971,4.60026,2469.937,2019-6-27T05:46:31Z
2019-06-27T03:49:17Z,42.805,6.029,13.2996,4.60044,2469.937,2019-6-27T05:49:34Z
2019-06-27T03:52:20Z,42.805,6.029,13.2979,4.60021,2469.937,2019-6-27T05:52:37Z
2019-06-27T03:55:23Z,42.805,6.029,13.3025,4.60009,2469.914,2019-6-27T05:55:40Z
2019-06-27T03:58:26Z,42.805,6.029,13.2982,4.60009,2469.937,2019-6-27T05:58:43Z
2019-06-27T04:01:29Z,42.805,6.029,13.2994,4.60046,2469.96,2019-6-27T06:01:46Z
2019-06-27T04:04:32Z,42.805,6.029,13.2987,4.60033,2469.947,2019-6-27T06:04:49Z
2019-06-27T04:07:35Z,42.805,6.029,13.3005,4.60034,2469.96,2019-6-27T06:07:52Z
2019-06-27T04:10:38Z,42.805,6.029,13.2999,4.60018,2469.937,2019-6-27T06:10:55Z
2019-06-27T04:13:41Z,42.805,6.029,13.3000,4.60058,2469.947,2019-6-27T06:13:58Z
2019-06-27T04:16:44Z,42.805,6.029,13.2964,4.60028,2469.923,2019-6-27T06:17:01Z
2019-06-27T04:19:47Z,42.805,6.029,13.2976,4.60011,2469.937,2019-6-27T06:20:04Z
2019-06-27T04:22:50Z,42.805,6.029,13.2971,4.59999,2469.984,2019-6-27T06:23:07Z
2019-06-27T04:25:52Z,42.805,6.029,13.2977,4.60019,2469.947,2019-6-27T06:26:09Z
2019-06-27T04:28:55Z,42.805,6.029,13.2969,4.59999,2469.947,2019-6-27T06:29:12Z
2019-06-27T04:31:58Z,42.805,6.029,13.2974,4.59999,2469.923,2019-6-27T06:32:15Z
2019-06-27T04:35:01Z,42.805,6.029,13.2991,4.60021,2469.914,2019-6-27T06:35:18Z
2019-06-27T04:38:04Z,42.805,6.029,13.2998,4.60022,2469.9,2019-6-27T06:38:21Z
2019-06-27T04:41:07Z,42.805,6.029,13.2994,4.60016,2469.89,2019-6-27T06:41:24Z
2019-06-27T04:44:10Z,42.805,6.029,13.2999,4.60020,2469.923,2019-6-27T06:44:27Z
2019-06-27T04:47:13Z,42.805,6.029,13.3000,4.60019,2469.947,2019-6-27T06:47:30Z
2019-06-27T04:50:16Z,42.805,6.029,13.2991,4.60017,2469.914,2019-6-27T06:50:33Z
2019-06-27T04:53:19Z,42.805,6.029,13.2996,4.60022,2469.937,2019-6-27T06:53:36Z
2019-06-27T04:56:22Z,42.805,6.029,13.2997,4.60029,2469.937,2019-6-27T06:56:39Z
2019-06-27T04:59:25Z,42.805,6.029,13.2968,4.60041,2469.937,2019-6-27T06:59:42Z
2019-06-27T05:02:28Z,42.805,6.029,13.2983,4.60024,2469.96,2019-6-27T07:02:45Z
2019-06-27T05:05:31Z,42.805,6.029,13.3000,4.60023,2469.937,2019-6-27T07:05:48Z
2019-06-27T05:08:34Z,42.805,6.029,13.3001,4.60025,2469.9,2019-6-27T07:08:51Z
2019-06-27T05:11:37Z,42.805,6.029,13.2995,4.60010,2469.9,2019-6-27T07:11:54Z
2019-06-27T05:14:40Z,42.805,6.029,13.2986,4.60011,2469.937,2019-6-27T07:14:57Z
2019-06-27T05:17:43Z,42.805,6.029,13.2993,4.60039,2469.914,2019-6-27T07:18:00Z
2019-06-27T05:20:46Z,42.805,6.029,13.3001,4.60019,2469.9,2019-6-27T07:21:03Z
2019-06-27T05:23:49Z,42.805,6.029,13.2998,4.60003,2469.914,2019-6-27T07:24:06Z
2019-06-27T05:26:51Z,42.805,6.029,13.2986,4.60014,2469.876,2019-6-27T07:27:08Z
2019-06-27T05:29:54Z,42.805,6.029,13.3004,4.60002,2469.9,2019-6-27T07:30:11Z
2019-06-27T05:32:57Z,42.805,6.029,13.3000,4.60055,2469.937,2019-6-27T07:33:14Z
2019-06-27T05:36:00Z,42.805,6.029,13.3010,4.60004,2469.9,2019-6-27T07:36:17Z
2019-06-27T05:39:03Z,42.805,6.029,13.2993,4.60040,2469.9,2019-6-27T07:39:20Z
2019-06-27T05:42:06Z,42.805,6.029,13.3030,4.60062,2469.89,2019-6-27T07:42:23Z
2019-06-27T05:45:09Z,42.805,6.029,13.2985,4.60013,2469.876,2019-6-27T07:45:26Z
2019-06-27T05:48:12Z,42.805,6.029,13.2979,4.60033,2469.89,2019-6-27T07:48:29Z
2019-06-27T05:51:15Z,42.805,6.029,13.2971,4.59996,2469.914,2019-6-27T07:51:32Z
2019-06-27T05:54:18Z,42.805,6.029,13.2988,4.60036,2469.876,2019-6-27T07:54:35Z
2019-06-27T05:57:21Z,42.805,6.029,13.2973,4.60063,2469.89,2019-6-27T07:57:38Z
2019-06-27T06:00:24Z,42.805,6.029,13.2983,4.60046,2469.89,2019-6-27T08:00:41Z
2019-06-27T06:03:27Z,42.805,6.029,13.2998,4.60043,2469.89,2019-6-27T08:03:44Z
2019-06-27T06:06:30Z,42.805,6.029,13.2991,4.60029,2469.89,2019-6-27T08:06:47Z
2019-06-27T06:09:33Z,42.805,6.029,13.3003,4.60024,2469.867,2019-6-27T08:09:50Z
2019-06-27T06:12:36Z,42.805,6.029,13.3017,4.60027,2469.853,2019-6-27T08:12:53Z
2019-06-27T06:15:39Z,42.805,6.029,13.3014,4.60035,2469.853,2019-6-27T08:15:56Z
2019-06-27T06:18:42Z,42.805,6.029,13.3001,4.60030,2469.853,2019-6-27T08:18:59Z
2019-06-27T06:21:45Z,42.805,6.029,13.3020,4.60020,2469.853,2019-6-27T08:22:02Z
2019-06-27T06:24:48Z,42.805,6.029,13.3024,4.60026,2469.867,2019-6-27T08:25:05Z
2019-06-27T06:27:50Z,42.805,6.029,13.3009,4.60003,2469.876,2019-6-27T08:28:07Z
2019-06-27T06:30:53Z,42.805,6.029,13.2993,4.60013,2469.876,2019-6-27T08:31:10Z
2019-06-27T06:33:56Z,42.805,6.029,13.3013,4.60048,2469.937,2019-6-27T08:34:13Z
2019-06-27T06:36:59Z,42.805,6.029,13.3028,4.60039,2469.89,2019-6-27T08:37:16Z
2019-06-27T06:40:02Z,42.805,6.029,13.3030,4.60031,2469.876,2019-6-27T08:40:19Z
2019-06-27T06:43:05Z,42.805,6.029,13.3021,4.60059,2469.867,2019-6-27T08:43:22Z
2019-06-27T06:46:08Z,42.805,6.029,13.2980,4.60021,2469.867,2019-6-27T08:46:25Z
2019-06-27T06:49:11Z,42.805,6.029,13.2974,4.60039,2469.867,2019-6-27T08:49:28Z
2019-06-27T06:52:14Z,42.805,6.029,13.3002,4.60069,2469.853,2019-6-27T08:52:31Z
2019-06-27T06:55:17Z,42.805,6.029,13.3015,4.60040,2469.876,2019-6-27T08:55:34Z
2019-06-27T06:58:20Z,42.805,6.029,13.2984,4.60019,2469.876,2019-6-27T08:58:37Z
2019-06-27T07:01:23Z,42.805,6.029,13.2990,4.59998,2469.844,2019-6-27T09:01:40Z
2019-06-27T07:04:26Z,42.805,6.029,13.3009,4.60025,2469.867,2019-6-27T09:04:43Z
2019-06-27T07:07:29Z,42.805,6.029,13.2997,4.60070,2469.867,2019-6-27T09:07:46Z
2019-06-27T07:10:32Z,42.805,6.029,13.3029,4.60006,2469.89,2019-6-27T09:10:49Z
2019-06-27T07:13:35Z,42.805,6.029,13.3003,4.60024,2469.853,2019-6-27T09:13:52Z
2019-06-27T07:16:38Z,42.805,6.029,13.3019,4.60041,2469.867,2019-6-27T09:16:55Z
2019-06-27T07:19:41Z,42.805,6.029,13.3020,4.60046,2469.853,2019-6-27T09:19:58Z
2019-06-27T07:22:44Z,42.805,6.029,13.3032,4.60046,2469.867,2019-6-27T09:23:01Z
2019-06-27T07:25:46Z,42.805,6.029,13.3047,4.60047,2469.806,2019-6-27T09:26:03Z
2019-06-27T07:28:49Z,42.805,6.029,13.2987,4.60012,2469.844,2019-6-27T09:29:06Z
2019-06-27T07:31:52Z,42.805,6.029,13.3023,4.60009,2469.844,2019-6-27T09:32:09Z
2019-06-27T07:34:55Z,42.805,6.029,13.2986,4.60034,2469.867,2019-6-27T09:35:12Z
2019-06-27T07:37:58Z,42.805,6.029,13.2992,4.60043,2469.806,2019-6-27T09:38:15Z
2019-06-27T07:41:01Z,42.805,6.029,13.2983,4.60036,2469.844,2019-6-27T09:41:18Z
2019-06-27T07:44:04Z,42.805,6.029,13.2991,4.60023,2469.806,2019-6-27T09:44:21Z
2019-06-27T07:47:07Z,42.805,6.029,13.2990,4.60011,2469.806,2019-6-27T09:47:24Z
2019-06-27T07:50:10Z,42.805,6.029,13.2972,4.60011,2469.83,2019-6-27T09:50:27Z
2019-06-27T07:53:13Z,42.805,6.029,13.2979,4.60033,2469.844,2019-6-27T09:53:30Z
2019-06-27T07:56:16Z,42.805,6.029,13.2996,4.60020,2469.867,2019-6-27T09:56:33Z
2019-06-27T07:59:19Z,42.805,6.029,13.3011,4.60010,2469.844,2019-6-27T09:59:36Z
2019-06-27T08:02:22Z,42.805,6.029,13.2992,4.60018,2469.844,2019-6-27T10:02:39Z
2019-06-27T08:05:25Z,42.805,6.029,13.3000,4.60009,2469.844,2019-6-27T10:05:42Z
2019-06-27T08:08:28Z,42.805,6.029,13.2985,4.60027,2469.83,2019-6-27T10:08:45Z
2019-06-27T08:11:31Z,42.805,6.029,13.2986,4.60041,2469.83,2019-6-27T10:11:48Z
2019-06-27T08:14:34Z,42.805,6.029,13.3000,4.60014,2469.821,2019-6-27T10:14:51Z
2019-06-27T08:17:37Z,42.805,6.029,13.3026,4.60033,2469.844,2019-6-27T10:17:54Z
2019-06-27T08:20:40Z,42.805,6.029,13.2988,4.60018,2469.821,2019-6-27T10:20:57Z
2019-06-27T08:23:43Z,42.805,6.029,13.3004,4.60019,2469.83,2019-6-27T10:24:00Z
2019-06-27T08:26:46Z,42.805,6.029,13.3034,4.60050,2469.821,2019-6-27T10:27:03Z
2019-06-27T08:29:48Z,42.805,6.029,13.3012,4.60052,2469.844,2019-6-27T10:30:05Z
2019-06-27T08:32:51Z,42.805,6.029,13.3032,4.60022,2469.821,2019-6-27T10:33:08Z
2019-06-27T08:35:54Z,42.805,6.029,13.3036,4.60024,2469.821,2019-6-27T10:36:11Z
2019-06-27T08:38:57Z,42.805,6.029,13.3025,4.59992,2469.783,2019-6-27T10:39:14Z
2019-06-27T08:42:00Z,42.805,6.029,13.3007,4.60019,2469.844,2019-6-27T10:42:17Z
2019-06-27T08:45:03Z,42.805,6.029,13.3008,4.59990,2469.821,2019-6-27T10:45:20Z
2019-06-27T08:48:06Z,42.805,6.029,13.3005,4.60028,2469.844,2019-6-27T10:48:23Z
2019-06-27T08:51:09Z,42.805,6.029,13.3017,4.59986,2469.83,2019-6-27T10:51:26Z
2019-06-27T08:54:12Z,42.805,6.029,13.3004,4.59993,2469.83,2019-6-27T10:54:29Z
2019-06-27T08:57:15Z,42.805,6.029,13.2979,4.60005,2469.806,2019-6-27T10:57:32Z
2019-06-27T09:00:18Z,42.805,6.029,13.2987,4.60001,2469.797,2019-6-27T11:00:35Z
2019-06-27T09:03:21Z,42.805,6.029,13.2986,4.60009,2469.821,2019-6-27T11:03:38Z
2019-06-27T09:06:24Z,42.805,6.029,13.2986,4.60006,2469.844,2019-6-27T11:06:41Z
2019-06-27T09:09:27Z,42.805,6.029,13.2978,4.60020,2469.806,2019-6-27T11:09:44Z
2019-06-27T09:12:30Z,42.805,6.029,13.2980,4.59986,2469.844,2019-6-27T11:12:47Z
2019-06-27T09:15:33Z,42.805,6.029,13.3021,4.59991,2469.821,2019-6-27T11:15:50Z
2019-06-27T09:18:36Z,42.805,6.029,13.2986,4.59997,2469.783,2019-6-27T11:18:53Z
2019-06-27T09:21:39Z,42.805,6.029,13.2973,4.59997,2469.806,2019-6-27T11:21:56Z
2019-06-27T09:24:42Z,42.805,6.029,13.2986,4.60023,2469.797,2019-6-27T11:24:59Z
2019-06-27T09:27:45Z,42.805,6.029,13.2980,4.59998,2469.806,2019-6-27T11:28:02Z
2019-06-27T09:30:48Z,42.805,6.029,13.2967,4.60015,2469.867,2019-6-27T11:31:05Z
2019-06-27T09:33:50Z,42.805,6.029,13.3025,4.59972,2469.783,2019-6-27T11:34:07Z
2019-06-27T09:36:53Z,42.805,6.029,13.2972,4.60010,2469.806,2019-6-27T11:37:10Z
2019-06-27T09:39:56Z,42.805,6.029,13.2976,4.59979,2469.76,2019-6-27T11:40:13Z
2019-06-27T09:42:59Z,42.805,6.029,13.2983,4.59978,2469.83,2019-6-27T11:43:16Z
2019-06-27T09:46:02Z,42.805,6.029,13.3019,4.59984,2469.83,2019-6-27T11:46:19Z
2019-06-27T09:49:05Z,42.805,6.029,13.3003,4.59987,2469.821,2019-6-27T11:49:22Z
2019-06-27T09:52:08Z,42.805,6.029,13.2983,4.60002,2469.821,2019-6-27T11:52:25Z
2019-06-27T09:55:11Z,42.805,6.029,13.2974,4.59996,2469.806,2019-6-27T11:55:28Z
2019-06-27T09:58:14Z,42.805,6.029,13.2990,4.60005,2469.821,2019-6-27T11:58:31Z
2019-06-27T10:01:17Z,42.805,6.029,13.3004,4.59981,2469.797,2019-6-27T12:01:34Z
2019-06-27T10:04:20Z,42.805,6.029,13.2990,4.59994,2469.83,2019-6-27T12:04:37Z
2019-06-27T10:07:23Z,42.805,6.029,13.2995,4.59973,2469.797,2019-6-27T12:07:40Z
2019-06-27T10:10:26Z,42.805,6.029,13.2998,4.59983,2469.821,2019-6-27T12:10:43Z
2019-06-27T10:13:29Z,42.805,6.029,13.2994,4.59988,2469.821,2019-6-27T12:13:46Z
2019-06-27T10:16:32Z,42.805,6.029,13.2977,4.59993,2469.821,2019-6-27T12:16:49Z
2019-06-27T10:19:35Z,42.805,6.029,13.2993,4.60013,2469.821,2019-6-27T12:19:52Z
2019-06-27T10:22:38Z,42.805,6.029,13.3006,4.60013,2469.844,2019-6-27T12:22:55Z
2019-06-27T10:25:41Z,42.805,6.029,13.2995,4.59991,2469.83,2019-6-27T12:25:58Z
2019-06-27T10:28:44Z,42.805,6.029,13.3000,4.59971,2469.83,2019-6-27T12:29:01Z
2019-06-27T10:31:47Z,42.805,6.029,13.2994,4.59985,2469.821,2019-6-27T12:32:04Z
2019-06-27T10:34:49Z,42.805,6.029,13.2979,4.59980,2469.844,2019-6-27T12:35:06Z
2019-06-27T10:37:52Z,42.805,6.029,13.2993,4.59976,2469.821,2019-6-27T12:38:09Z
2019-06-27T10:40:55Z,42.805,6.029,13.2998,4.59974,2469.821,2019-6-27T12:41:12Z
2019-06-27T10:43:58Z,42.805,6.029,13.3000,4.60000,2469.806,2019-6-27T12:44:15Z
2019-06-27T10:47:01Z,42.805,6.029,13.3013,4.60009,2469.821,2019-6-27T12:47:18Z
2019-06-27T10:50:04Z,42.805,6.029,13.2987,4.60003,2469.806,2019-6-27T12:50:21Z
2019-06-27T10:53:07Z,42.805,6.029,13.3031,4.60000,2469.821,2019-6-27T12:53:24Z
2019-06-27T10:56:10Z,42.805,6.029,13.3000,4.59994,2469.806,2019-6-27T12:56:27Z
2019-06-27T10:59:13Z,42.805,6.029,13.2993,4.59989,2469.844,2019-6-27T12:59:30Z
2019-06-27T11:02:16Z,42.805,6.029,13.2968,4.59991,2469.821,2019-6-27T13:02:33Z
2019-06-27T11:05:19Z,42.805,6.029,13.2971,4.59996,2469.844,2019-6-27T13:05:36Z
2019-06-27T11:08:22Z,42.805,6.029,13.2974,4.59991,2469.821,2019-6-27T13:08:39Z
2019-06-27T11:11:25Z,42.805,6.029,13.2991,4.59989,2469.816,2019-6-27T13:11:42Z
2019-06-27T11:14:28Z,42.805,6.029,13.2972,4.59981,2469.867,2019-6-27T13:14:45Z
2019-06-27T11:17:31Z,42.805,6.029,13.3009,4.60003,2469.83,2019-6-27T13:17:48Z
2019-06-27T11:20:34Z,42.805,6.029,13.3004,4.59992,2469.806,2019-6-27T13:20:51Z
2019-06-27T11:23:37Z,42.805,6.029,13.2993,4.59977,2469.821,2019-6-27T13:23:54Z
2019-06-27T11:26:40Z,42.805,6.029,13.3002,4.59996,2469.797,2019-6-27T13:26:57Z
2019-06-27T11:29:43Z,42.805,6.029,13.2982,4.59976,2469.806,2019-6-27T13:30:00Z
2019-06-27T11:32:46Z,42.805,6.029,13.2983,4.59999,2469.806,2019-6-27T13:33:03Z
2019-06-27T11:35:49Z,42.805,6.029,13.3026,4.59993,2469.821,2019-6-27T13:36:06Z
2019-06-27T11:38:52Z,42.805,6.029,13.2983,4.59983,2469.844,2019-6-27T13:39:09Z
2019-06-27T11:41:54Z,42.805,6.029,13.3012,4.59984,2469.844,2019-6-27T13:42:11Z
2019-06-27T11:44:57Z,42.805,6.029,13.2997,4.59979,2469.867,2019-6-27T13:45:14Z
2019-06-27T11:48:00Z,42.805,6.029,13.2991,4.59992,2469.821,2019-6-27T13:48:17Z
2019-06-27T11:51:03Z,42.805,6.029,13.2986,4.59989,2469.83,2019-6-27T13:51:20Z
2019-06-27T11:54:06Z,42.805,6.029,13.3013,4.59998,2469.83,2019-6-27T13:54:23Z
2019-06-27T11:57:09Z,42.805,6.029,13.2988,4.59977,2469.806,2019-6-27T13:57:26Z
2019-06-27T12:00:12Z,42.805,6.029,13.2974,4.59990,2469.821,2019-6-27T14:00:29Z
2019-06-27T12:03:15Z,42.805,6.029,13.2986,4.60004,2469.853,2019-6-27T14:03:32Z
2019-06-27T12:06:18Z,42.805,6.029,13.2982,4.59996,2469.821,2019-6-27T14:06:35Z
2019-06-27T12:09:21Z,42.805,6.029,13.2979,4.59994,2469.844,2019-6-27T14:09:38Z
2019-06-27T12:12:24Z,42.805,6.029,13.3003,4.60001,2469.867,2019-6-27T14:12:41Z
2019-06-27T12:15:27Z,42.805,6.029,13.2993,4.60004,2469.83,2019-6-27T14:15:44Z
2019-06-27T12:18:30Z,42.805,6.029,13.2998,4.60003,2469.867,2019-6-27T14:18:47Z
2019-06-27T12:21:33Z,42.805,6.029,13.2993,4.60000,2469.821,2019-6-27T14:21:50Z
2019-06-27T12:24:36Z,42.805,6.029,13.3013,4.59985,2469.867,2019-6-27T14:24:53Z
2019-06-27T12:27:39Z,42.805,6.029,13.2983,4.60005,2469.844,2019-6-27T14:27:56Z
2019-06-27T12:30:42Z,42.805,6.029,13.2978,4.59986,2469.844,2019-6-27T14:30:59Z
2019-06-27T12:33:45Z,42.805,6.029,13.2973,4.59983,2469.806,2019-6-27T14:34:02Z
2019-06-27T12:36:48Z,42.805,6.029,13.2989,4.59991,2469.83,2019-6-27T14:37:05Z
2019-06-27T12:39:51Z,42.805,6.029,13.2998,4.60001,2469.83,2019-6-27T14:40:08Z
2019-06-27T12:42:54Z,42.805,6.029,13.2983,4.59999,2469.806,2019-6-27T14:43:11Z
2019-06-27T12:45:57Z,42.805,6.029,13.2986,4.60036,2469.806,2019-6-27T14:46:14Z
2019-06-27T12:48:59Z,42.805,6.029,13.2982,4.59988,2469.853,2019-6-27T14:49:16Z
2019-06-27T12:52:02Z,42.805,6.029,13.2996,4.59976,2469.853,2019-6-27T14:52:19Z
2019-06-27T12:55:05Z,42.805,6.029,13.3015,4.59999,2469.83,2019-6-27T14:55:22Z
2019-06-27T12:58:08Z,42.805,6.029,13.2968,4.60024,2469.89,2019-6-27T14:58:25Z
2019-06-27T13:01:11Z,42.805,6.029,13.2990,4.60005,2469.844,2019-6-27T15:01:28Z
2019-06-27T13:04:14Z,42.805,6.029,13.3011,4.59976,2469.83,2019-6-27T15:04:31Z
2019-06-27T13:07:17Z,42.805,6.029,13.2987,4.59983,2469.867,2019-6-27T15:07:34Z
2019-06-27T13:10:20Z,42.805,6.029,13.3041,4.59988,2469.867,2019-6-27T15:10:37Z
2019-06-27T13:13:23Z,42.805,6.029,13.3014,4.59999,2469.89,2019-6-27T15:13:40Z
2019-06-27T13:16:26Z,42.805,6.029,13.2976,4.60002,2469.867,2019-6-27T15:16:43Z
2019-06-27T13:19:29Z,42.805,6.029,13.3000,4.60005,2469.867,2019-6-27T15:19:46Z
2019-06-27T13:22:32Z,42.805,6.029,13.3009,4.59994,2469.853,2019-6-27T15:22:49Z
2019-06-27T13:25:35Z,42.805,6.029,13.2996,4.60000,2469.853,2019-6-27T15:25:52Z
2019-06-27T13:28:38Z,42.805,6.029,13.3015,4.60006,2469.867,2019-6-27T15:28:55Z
2019-06-27T13:31:41Z,42.805,6.029,13.3007,4.60000,2469.876,2019-6-27T15:31:58Z
2019-06-27T13:34:44Z,42.805,6.029,13.2980,4.59991,2469.853,2019-6-27T15:35:01Z
2019-06-27T13:37:47Z,42.805,6.029,13.2985,4.60011,2469.844,2019-6-27T15:38:04Z
2019-06-27T13:40:50Z,42.805,6.029,13.2987,4.60039,2469.821,2019-6-27T15:41:07Z
2019-06-27T13:43:53Z,42.805,6.029,13.2995,4.60006,2469.853,2019-6-27T15:44:10Z
2019-06-27T13:46:56Z,42.805,6.029,13.2995,4.59996,2469.853,2019-6-27T15:47:13Z
2019-06-27T13:49:59Z,42.805,6.029,13.2996,4.60017,2469.844,2019-6-27T15:50:16Z
2019-06-27T13:53:01Z,42.805,6.029,13.3008,4.60010,2469.89,2019-6-27T15:53:18Z
2019-06-27T13:56:04Z,42.805,6.029,13.3000,4.60014,2469.853,2019-6-27T15:56:21Z
2019-06-27T13:59:07Z,42.805,6.029,13.3048,4.60010,2469.853,2019-6-27T15:59:24Z
2019-06-27T14:02:10Z,42.805,6.029,13.3031,4.60016,2469.867,2019-6-27T16:02:27Z
2019-06-27T14:05:13Z,42.805,6.029,13.3026,4.59986,2469.867,2019-6-27T16:05:30Z
2019-06-27T14:08:16Z,42.805,6.029,13.2998,4.60010,2469.89,2019-6-27T16:08:33Z
2019-06-27T14:11:19Z,42.805,6.029,13.2991,4.59986,2469.853,2019-6-27T16:11:36Z
2019-06-27T14:14:22Z,42.805,6.029,13.2987,4.59994,2469.853,2019-6-27T16:14:39Z
2019-06-27T14:17:25Z,42.805,6.029,13.3028,4.60002,2469.867,2019-6-27T16:17:42Z
2019-06-27T14:20:28Z,42.805,6.029,13.3020,4.60011,2469.89,2019-6-27T16:20:45Z
2019-06-27T14:23:31Z,42.805,6.029,13.3014,4.60024,2469.844,2019-6-27T16:23:48Z
2019-06-27T14:26:34Z,42.805,6.029,13.3044,4.60052,2469.853,2019-6-27T16:26:51Z
2019-06-27T14:29:37Z,42.805,6.029,13.3037,4.60087,2469.853,2019-6-27T16:29:54Z
2019-06-27T14:32:40Z,42.805,6.029,13.3058,4.60039,2469.914,2019-6-27T16:32:57Z
2019-06-27T14:35:43Z,42.805,6.029,13.3021,4.60041,2469.853,2019-6-27T16:36:00Z
2019-06-27T14:38:46Z,42.805,6.029,13.3014,4.60039,2469.89,2019-6-27T16:39:03Z
2019-06-27T14:41:49Z,42.805,6.029,13.2999,4.60006,2469.89,2019-6-27T16:42:06Z
2019-06-27T14:44:52Z,42.805,6.029,13.3015,4.59978,2469.876,2019-6-27T16:45:09Z
2019-06-27T14:47:55Z,42.805,6.029,13.2998,4.60003,2469.876,2019-6-27T16:48:12Z
2019-06-27T14:50:58Z,42.805,6.029,13.3000,4.60067,2469.9,2019-6-27T16:51:15Z
2019-06-27T14:54:01Z,42.805,6.029,13.3005,4.60025,2469.867,2019-6-27T16:54:18Z
2019-06-27T14:57:04Z,42.805,6.029,13.3023,4.60023,2469.876,2019-6-27T16:57:21Z
2019-06-27T15:00:06Z,42.805,6.029,13.3018,4.60005,2469.89,2019-6-27T17:00:23Z
2019-06-27T15:03:09Z,42.805,6.029,13.3021,4.60033,2469.853,2019-6-27T17:03:26Z
2019-06-27T15:06:12Z,42.805,6.029,13.3005,4.60061,2469.876,2019-6-27T17:06:29Z
2019-06-27T15:09:15Z,42.805,6.029,13.3050,4.60003,2469.89,2019-6-27T17:09:32Z
2019-06-27T15:12:18Z,42.805,6.029,13.3039,4.60010,2469.89,2019-6-27T17:12:35Z